Location: St. Louis
(38.6270°N, 90.1994°W)
Time: 13:31:47
(UTC-06:00)

S-56A Canister/Altair - Pass Details

Date: 02 December 2021
Orbit: 633 x 2499 km, 38.9° (Epoch: 19 January)

Event Time Altitude Azimuth Distance (km) Brightness Sun altitude
Rises 00:01:11 0° 235° (SW) 5,267 - -73.2°
Reaches altitude 10° 00:05:12 10° 231° (SW) 3,980 - -73.1°
Maximum altitude 00:14:40 54° 158° (SSE) 1,467 - -72.6°
Drops below altitude 10° 00:20:57 10° 82° (E) 2,676 - -72.1°
Sets 00:23:10 0° 78° (ENE) 3,446 - -71.9°
